Regional Weather Roundup
Issued by NWS Sioux Falls, SD

Home | Current Version | Previous Version | Text Only | Print | Product List | Glossary On
Versions: 1 2 3 4 5 6 7 8 9 10 11 12 13 14 15 16 17 18 19 20 21 22 23 24 25 26 27 28 29 30 31 32 33 34 35 36 37 38 39 40 41 42 43 44 45 46 47 48 49 50
000
ASUS43 KFSD 281410
RWRFSD

WEATHER ROUNDUP FOR SE SOUTH DAKOTA/SW MINNESOTA/NW IOWA
NATIONAL WEATHER SERVICE SIOUX FALLS SD
900 AM CDT SAT MAY 28 2016

NOTE: "FAIR" INDICATES FEW OR NO CLOUDS BELOW 12,000 FEET WITH NO
SIGNIFICANT WEATHER AND OR OBSTRUCTIONS TO VISIBILITY.


SDZ038>040-050-052>070-281500-
SOUTHEAST SOUTH DAKOTA

CITY           SKY/WX    TMP DP  RH WIND       PRES   REMARKS
BROOKINGS      RAIN      60  59  96 E8        29.77S
CHAMBERLAIN    CLOUDY    62  60  94 W3        29.82R
HURON          CLOUDY    60  59  96 N8        29.79R
MADISON        LGT RAIN  57  57 100 N8        29.78R
MITCHELL       RAIN      60  59  96 N8        29.78R FOG
SIOUX FALLS    LGT RAIN  61  59  93 E6        29.75S FOG
WINNER         CLOUDY    59  54  83 NW8       29.84R
YANKTON        CLOUDY    63  57  82 NW17      29.74R
$$

MNZ071-072-080-081-089-090-097-098-281500-
SOUTHWEST MINNESOTA

CITY           SKY/WX    TMP DP  RH WIND       PRES   REMARKS
FAIRMONT       CLOUDY    66  63  88 S8        29.74S
JACKSON        CLOUDY    64  61  88 CALM      29.76R
LUVERNE        DRIZZLE   59  57  94 NE6       29.76S
MARSHALL       LGT RAIN  59  58  96 NE6       29.78S
MONTEVIDEO     CLOUDY    61  57  88 E6        29.80R
PIPESTONE      LGT RAIN  61  59  94 NE8       29.75F
REDWOOD FALLS  HVY RAIN  59  57  93 NE7       29.76S FOG
TRACY          RAIN      60  60  99 NE5       29.77S
WINDOM         LGT RAIN  61  59  94 CALM      29.76R
WORTHINGTON    HVY RAIN  63  61  94 NE5       29.77R FOG
$$

IAZ001>003-012>014-020>022-031-032-NEZ013-014-SDZ071-281500-
NORTHWEST IOWA

CITY           SKY/WX    TMP DP  RH WIND       PRES   REMARKS
CHEROKEE       CLOUDY    65  63  92 SW10      29.75S
DENISON        CLOUDY    63  59  88 VRB6G17   29.76R
ESTHERVILLE    CLOUDY    65  63  93 S12       29.75R
LE MARS        CLOUDY    63  59  88 S8        29.75S
ORANGE CITY    CLOUDY    63  61  94 S9        29.75S
SHELDON        PTSUNNY   64  63  94 SE7       29.74S
SIOUX CITY     PTSUNNY   65  59  81 S8        29.74S
SPENCER        LGT RAIN  62  60  93 CALM      29.77R
STORM LAKE     CLOUDY    64  61  88 S9        29.77R
$$

ABBREVIATIONS USED IN REMARKS
   TC - TEMPERATURE IN CELSIUS
  WCI - WIND CHILL INDEX
   HX - HEAT INDEX
  VSB - VISIBILITY





USA.gov is the U.S. government's official web portal to all federal, state and local government web resources and services.